Theta_e
333 336 338 338 339 338 339 339 331 331 330 329 329 329 328 328 330 334 334 334 331 333 332 331 330 330 325 325 325 324 321 321 315 318 323 325 323 321 322 324 323 324 323
332 334 335 336 337 336 335 337 338 332 332 331 331 329 328 329 329 331 332 331 330 327 327 329 328 326 329 329 325 326 324 323 318 318 320 318 318 320 322 323 321 320 322
329 330 332 333 335 336 337 337 337 335 335 332 332 329 328 326 329 331 334 330 328 328 326 329 329 328 328 326 325 324 323 321 321 317 316 316 318 319 321 322 322 322 320
326 328 329 330 332 333 334 333 332 332 332 332 331 332 331 331 332 333 332 331 329 327 328 330 329 329 328 327 324 326 323 323 321 317 315 317 317 320 319 317 317 319 318
325 325 326 329 331 332 333 333 331 334 332 333 332 333 334 334 334 334 335 333 330 328 327 331 331 328 324 325 325 327 327 323 319 316 318 317 316 316 317 318 316 317 319
321 324 324 325 326 327 330 331 331 330 331 333 333 333 333 333 320 317 329 336 330 328 327 331 332 325 323 317 317 319 325 324 324 321 320 318 320 317 318 317 315 314 313
321 324 323 322 321 322 325 326 328 329 326 327 329 330 330 331 312 312 314 333 334 332 328 328 329 330 325 327 315 314 314 312 319 327 325 322 320 319 320 318 319 316 314
318 322 321 319 319 320 320 321 324 326 327 327 327 330 331 333 313 309 311 328 334 334 333 330 328 330 330 329 328 323 325 323 322 323 328 327 324 322 320 321 319 317 316
309 318 321 320 318 318 317 319 320 318 319 323 327 329 330 334 311 306 310 326 327 328 329 329 326 325 315 309 326 323 324 324 313 309 310 308 305 305 311 316 314 313 314
309 311 316 321 318 317 318 319 318 319 321 323 323 327 324 333 312 305 310 327 325 326 327 327 314 322 308 305 326 324 321 323 322 317 315 309 307 309 303 317 316 313 314
310 310 312 321 319 318 317 318 317 318 319 321 325 330 327 330 330 303 303 327 326 327 326 322 321 305 303 301 309 324 320 325 317 320 319 317 317 318 315 314 318 316 314
309 310 312 319 317 316 312 312 312 311 310 316 320 326 328 329 306 304 301 306 317 329 324 323 320 304 302 300 302 309 304 312 324 319 319 317 316 315 315 316 318 318 317
308 310 311 317 317 316 314 309 309 308 307 308 312 315 318 315 315 304 299 299 301 318 328 319 310 304 302 302 302 304 302 318 317 316 315 315 314 315 317 316 317 317 317
307 309 311 312 315 313 309 308 306 306 305 306 307 309 312 312 310 312 312 314 304 309 309 311 312 310 310 312 305 305 312 316 313 311 315 313 310 309 311 311 311 313 312
307 309 312 313 313 312 306 306 305 306 301 302 304 304 303 311 302 298 302 308 310 307 306 307 308 309 309 310 310 308 310 311 309 309 306 304 304 306 307 309 308 308 306
308 307 309 311 310 307 308 305 294 294 293 292 291 295 299 294 294 295 296 297 299 300 308 306 305 305 306 305 305 305 305 304 304 304 304 303 304 303 303 302 305 306 305
306 308 310 306 308 307 305 307 307 298 293 292 291 292 292 291 291 293 295 295 294 302 309 307 305 305 304 303 304 303 302 304 304 302 302 302 301 302 299 300 301 303 303
307 301 309 311 307 308 306 308 309 307 306 304 295 294 293 293 292 293 296 300 309 307 309 307 305 305 305 304 303 302 302 304 302 301 301 301 300 300 299 299 301 301 303
306 307 309 308 308 307 307 305 307 307 305 301 300 297 295 294 295 294 297 307 304 303 304 303 305 306 305 305 304 305 305 302 301 301 300 300 300 300 300 300 302 295 296
307 295 299 307 308 307 306 306 307 305 303 302 300 298 300 298 300 301 302 302 302 301 301 300 301 302 303 305 305 305 305 304 304 302 299 300 301 301 301 301 302 300 300
303 302 294 303 305 305 305 306 308 303 301 302 299 297 290 300 301 301 303 304 303 303 304 304 303 304 305 305 305 305 305 305 304 303 301 300 300 299 301 300 299 300 299
305 303 302 302 304 304 305 308 306 302 301 302 298 296 289 300 301 302 303 302 302 303 305 304 303 302 302 302 302 303 302 303 303 301 298 298 298 298 298 298 298 299 299
302 303 303 303 304 299 304 304 301 299 299 301 299 298 298 299 299 299 298 300 301 303 303 304 303 302 303 303 303 301 301 299 299 296 295 295 296 297 297 297 297 298 298
300 302 303 305 305 304 302 300 299 296 299 299 299 299 299 299 297 296 297 298 301 301 302 302 302 302 303 303 298 298 297 296 292 291 292 292 294 294 296 297 297 297 298
302 302 303 304 303 300 299 299 299 299 299 299 299 298 296 295 295 295 298 301 301 300 300 300 301 301 301 301 301 299 290 285 289 287 290 291 292 294 295 295 296 296 296
299 300 301 302 300 300 299 298 298 297 296 296 295 295 294 294 296 297 299 299 299 299 300 300 300 300 300 300 295 287 285 286 293 286 295 296 295 294 294 294 294 294 294
Wind_Speed
9 7 5 3 7 10 11 12 11 12 14 16 13 10 7 3 9 12 11 11 11 9 8 10 9 8 6 6 6 6 5 3 3 4 2 3 3 3 4 4 4 5 4
10 10 7 4 4 6 8 8 7 6 9 11 15 14 12 11 14 16 15 12 13 10 9 9 10 7 9 9 8 7 6 4 2 5 3 4 4 4 4 5 4 4 6
8 8 9 8 4 7 5 8 9 8 11 13 12 13 14 15 18 18 17 12 11 10 10 11 12 11 11 8 8 9 7 5 4 3 4 3 3 3 2 3 4 4 4
7 7 7 8 8 6 3 4 6 9 11 13 10 15 14 14 15 16 14 12 8 7 8 12 12 14 13 12 10 9 9 7 6 4 3 3 3 2 3 4 3 4 5
7 7 7 6 5 5 5 2 5 8 11 12 14 15 15 14 12 13 14 15 13 10 7 8 13 15 15 15 10 11 9 8 7 6 4 3 4 3 3 3 4 6 4
9 5 5 6 6 6 5 4 4 5 5 10 12 14 13 10 13 14 12 12 13 13 11 14 13 13 15 16 13 11 13 11 9 6 5 4 5 4 2 3 4 5 4
10 5 4 5 6 6 6 5 4 5 5 6 6 10 12 13 13 15 17 13 14 13 12 11 12 13 14 15 13 12 12 10 8 11 8 7 5 5 2 3 2 4 4
11 7 4 4 5 5 5 6 6 5 6 7 9 11 11 11 15 19 19 17 14 16 17 17 16 14 14 15 13 12 14 12 12 9 9 7 7 6 5 2 3 4 5
12 11 6 2 5 5 5 6 6 7 7 7 8 11 13 13 13 16 14 12 13 13 14 14 14 12 11 15 12 11 13 10 9 5 4 7 8 7 4 4 6 5 3
13 11 9 5 3 4 6 8 7 8 8 7 8 9 13 14 12 14 14 8 9 7 8 13 20 18 19 19 12 11 11 12 13 11 8 6 7 8 8 8 5 6 3
13 12 11 7 4 1 4 5 6 8 9 9 9 8 9 12 10 13 16 10 8 8 8 6 7 14 18 16 14 11 14 10 11 10 9 8 8 8 8 8 8 7 5
13 12 11 8 4 1 1 4 6 6 8 9 9 7 4 4 5 7 14 14 10 11 9 7 8 15 13 14 13 13 11 11 8 10 10 10 9 8 7 7 8 8 6
12 12 10 8 5 1 2 3 4 5 5 7 7 7 6 2 3 7 6 5 9 5 6 10 13 18 18 13 18 12 11 8 9 9 10 9 8 5 6 6 7 8 7
13 13 10 7 6 3 1 2 3 3 5 5 6 6 6 5 2 5 5 1 5 6 3 3 5 9 12 13 8 9 9 9 10 9 9 6 5 5 6 6 5 5 6
12 11 8 3 4 3 2 1 2 2 4 5 5 5 5 5 5 2 4 4 3 0 4 2 2 2 4 5 4 5 6 4 4 3 4 5 4 5 4 2 1 1 4
10 9 9 2 1 3 3 3 2 3 6 5 4 4 1 5 5 4 5 4 4 2 1 2 2 3 3 4 4 5 5 4 4 5 4 3 4 3 3 3 2 4 5
9 10 5 5 9 5 5 6 5 2 4 5 7 8 8 6 9 6 3 7 6 4 4 5 5 4 5 5 6 6 4 4 6 4 3 4 5 4 4 3 3 3 6
9 9 9 7 7 9 6 9 5 4 3 0 6 7 6 5 7 11 5 4 7 8 7 6 7 5 5 5 4 4 5 5 4 4 3 2 2 2 3 4 4 7 6
6 5 4 4 4 5 6 5 6 3 2 2 1 3 3 4 4 7 6 6 7 8 6 7 7 6 3 4 4 4 5 4 3 3 2 1 3 4 6 6 6 7 5
4 2 3 1 2 5 6 5 6 4 4 4 3 2 2 2 3 5 5 6 7 6 5 6 5 4 4 4 4 3 3 3 2 1 2 2 4 5 6 7 7 7 6
4 3 2 3 4 5 5 7 5 5 4 4 5 2 2 1 1 4 5 5 5 6 6 6 5 3 3 3 4 4 3 2 2 2 1 2 4 5 6 6 6 6 6
4 4 3 5 5 6 6 6 6 6 6 5 4 4 3 4 4 5 5 6 5 4 4 5 4 3 2 3 3 2 1 1 2 2 2 2 4 4 5 5 6 6 6
5 6 5 4 4 5 5 6 7 6 5 6 5 5 4 3 5 4 5 6 5 4 4 5 4 4 3 4 4 3 3 3 4 3 2 3 4 5 5 5 6 6 5
8 8 7 5 6 6 7 7 6 6 6 6 5 5 5 5 6 6 5 4 5 5 6 5 5 6 6 5 5 3 3 4 3 3 2 3 6 5 5 6 6 7 6
4 5 7 7 8 8 9 9 8 6 6 6 6 7 7 6 6 5 4 7 7 7 8 7 6 7 10 10 9 8 8 6 3 1 2 4 5 6 5 5 6 6 6
11 10 9 8 8 9 9 9 9 8 8 8 8 8 7 6 5 7 7 7 7 8 10 8 10 12 11 11 11 8 5 4 6 3 1 1 2 3 4 6 8 5 5
Wind_Direction
13 1 329 255 202 185 197 185 178 171 164 151 166 176 192 218 270 261 244 225 199 196 210 199 191 177 193 168 178 179 174 176 137 121 147 149 236 254 270 285 290 308 315
5 5 359 290 260 216 212 213 234 212 171 162 175 189 190 189 220 235 230 221 222 190 181 206 201 184 200 187 190 172 161 146 130 154 143 174 225 216 267 300 314 321 322
3 8 10 11 332 272 240 208 194 211 201 201 192 207 209 204 200 226 224 212 208 204 187 181 216 193 201 199 199 171 159 147 149 158 159 193 213 234 246 259 297 326 314
357 10 26 13 5 346 299 289 198 191 201 207 213 209 217 205 216 215 209 203 200 214 208 183 211 210 200 196 205 189 155 167 149 182 195 197 236 170 278 290 316 320 329
341 3 13 21 33 21 353 321 259 225 211 215 218 227 223 210 210 199 202 203 200 201 187 217 217 222 202 204 197 192 183 174 177 181 197 200 231 228 275 344 312 331 340
312 342 359 12 26 31 26 354 304 259 261 229 222 226 223 221 211 204 211 219 210 211 198 213 226 207 204 199 205 186 190 182 190 187 199 215 236 234 231 305 325 328 0
297 308 337 356 360 13 360 354 335 285 282 257 247 225 223 225 211 217 214 213 214 209 214 207 212 215 209 215 201 192 198 211 207 183 192 202 219 214 225 238 239 275 296
296 283 293 338 336 346 347 332 320 308 282 262 255 239 229 229 224 220 214 219 222 217 217 213 212 207 191 208 201 202 217 204 216 207 199 196 202 174 206 233 258 270 258
306 299 292 291 309 323 340 336 333 318 301 292 273 254 248 245 222 215 201 212 227 219 213 208 206 190 190 185 188 192 204 214 204 219 166 134 154 165 200 206 230 235 253
305 302 299 270 280 333 337 339 328 312 304 292 285 268 275 252 222 216 201 215 217 221 215 210 192 198 184 172 193 198 202 218 203 196 182 170 180 179 190 221 243 250 252
298 298 292 269 266 286 338 326 318 315 310 303 291 277 252 253 244 209 208 212 210 208 224 196 190 188 160 171 204 192 204 197 208 196 192 199 191 199 207 212 224 247 243
288 291 285 260 235 177 331 324 319 331 319 309 308 309 260 277 20 222 207 206 198 209 195 186 178 182 181 186 206 235 189 163 206 207 207 201 200 207 210 208 207 228 248
283 282 278 269 240 215 314 319 316 336 326 316 315 320 334 17 337 359 247 235 256 252 207 201 178 182 187 201 212 217 165 189 198 198 212 211 198 206 193 193 198 210 236
276 276 275 271 240 181 253 312 319 347 326 323 320 320 329 322 348 347 338 43 196 222 310 32 204 188 194 201 176 194 200 199 197 195 196 182 150 162 190 184 205 206 226
272 266 257 290 244 203 174 337 327 358 313 318 315 320 334 330 323 284 308 338 353 82 112 93 93 123 156 160 165 172 184 188 182 153 151 145 137 164 170 146 311 240 256
268 251 249 280 0 260 239 195 57 353 337 330 307 257 30 357 312 76 94 79 84 192 180 107 84 92 113 125 135 148 137 150 129 124 123 117 130 150 142 154 175 236 274
267 279 259 206 278 277 274 253 234 138 78 34 44 49 39 10 339 352 74 113 99 185 134 111 106 115 118 115 118 122 120 123 122 114 126 141 135 152 160 179 181 214 243
299 267 263 234 212 234 243 248 241 198 208 314 46 43 23 11 334 324 350 49 79 65 69 84 90 84 94 97 94 108 102 116 101 106 109 129 146 174 195 209 203 225 238
272 271 244 222 206 182 200 226 230 187 143 149 130 78 3 352 332 18 28 80 78 73 68 64 64 78 82 99 85 97 116 114 103 115 147 205 217 223 228 234 242 232 233
299 313 292 142 145 186 182 189 209 163 162 168 142 111 282 304 72 69 61 77 88 90 93 87 94 103 116 113 110 112 112 115 124 172 187 216 243 248 239 237 235 237 218
322 322 326 247 204 251 200 206 174 138 158 151 124 113 185 145 134 101 92 87 90 88 90 88 76 82 89 93 104 106 113 132 165 178 186 237 240 243 246 246 242 236 237
293 304 261 221 224 201 191 180 153 142 147 144 122 105 93 107 98 86 86 82 74 90 108 110 107 78 53 65 60 66 57 306 328 341 320 286 267 255 248 245 245 235 237
254 278 267 229 203 140 129 122 120 118 118 121 115 105 103 91 83 74 69 67 68 72 80 84 86 88 64 64 54 24 10 356 3 322 282 269 269 244 229 238 237 243 235
226 220 225 179 144 124 109 105 101 108 106 109 100 97 89 87 84 72 72 81 79 69 66 69 67 67 67 61 54 25 31 17 345 322 318 272 257 245 244 240 236 238 243
129 178 135 118 120 111 112 105 102 98 94 93 88 77 69 66 65 63 78 75 73 73 68 63 59 51 53 48 39 23 22 360 325 266 216 223 247 252 247 248 244 241 240
46 63 82 92 100 95 94 89 79 75 73 71 73 73 69 54 64 68 66 71 74 66 64 58 58 57 58 48 38 15 358 14 27 35 78 237 268 250 240 246 249 242 241